Total_Precipitation_Accumulation
2.53 2.13 3.47 3.65 3.30 2.96 2.71 2.73 2.86 2.84 2.93 2.93 2.80 2.55 2.40 2.34 2.38 2.48 2.25 1.98 1.92 1.97 2.21 2.37 2.27 2.29 2.16 2.14 2.18 2.32 2.40 2.40 2.49 2.22 1.99 1.87 1.80 1.90 2.10 2.26 2.51 2.80 2.32
1.77 1.79 3.07 3.47 3.34 3.11 2.96 2.90 2.93 2.93 2.94 2.86 2.70 2.57 2.28 2.13 2.27 2.55 2.29 2.16 2.01 1.91 2.05 2.26 2.32 2.40 2.35 2.36 2.47 2.50 2.48 2.44 2.49 2.35 2.30 2.26 2.03 2.00 1.90 2.07 2.51 2.76 2.21
1.54 1.70 2.48 3.38 3.33 3.05 3.01 2.95 2.84 2.84 2.83 2.67 2.52 2.31 2.23 2.12 2.18 2.48 2.33 2.29 2.13 1.96 2.09 2.30 2.46 2.54 2.53 2.56 2.71 2.68 2.58 2.63 2.55 2.38 2.70 3.12 2.52 2.21 2.14 2.16 2.20 2.19 2.11
1.29 1.50 2.08 2.91 2.84 2.75 2.74 2.55 2.46 2.43 2.36 2.39 2.38 2.19 2.12 2.12 2.28 2.52 2.43 2.25 2.10 2.00 2.08 2.26 2.45 2.40 2.43 2.58 2.70 2.86 2.76 2.81 2.72 2.43 2.62 3.04 2.92 2.58 2.45 2.41 2.19 2.11 2.28
1.10 1.41 2.14 2.75 2.63 2.61 2.55 2.28 2.30 2.18 2.11 2.16 2.24 2.16 2.19 2.12 2.19 2.38 2.39 2.34 2.31 2.34 2.30 2.41 2.47 2.38 2.42 2.53 2.60 2.82 2.97 2.99 2.72 2.21 2.20 2.61 3.26 3.01 2.54 2.47 2.37 2.33 2.38
1.16 1.30 1.82 2.40 2.36 2.31 2.28 2.32 2.27 2.11 2.09 2.06 2.08 2.12 2.15 2.14 2.11 2.22 2.36 2.30 2.27 2.50 2.61 2.59 2.59 2.58 2.53 2.52 2.49 2.75 2.99 2.74 2.34 2.24 2.36 2.68 3.13 2.99 2.47 2.28 2.39 2.50 2.50
1.05 1.09 1.44 2.08 2.09 2.04 2.08 2.18 2.25 2.17 2.15 2.07 2.07 2.22 2.24 2.18 2.15 2.22 2.37 2.35 2.27 2.38 2.61 2.55 2.48 2.44 2.35 2.36 2.35 2.40 2.58 2.46 2.20 2.30 2.45 2.74 2.77 2.82 2.52 2.32 2.45 2.49 2.57
1.14 1.06 1.22 1.88 2.03 1.91 1.99 2.05 2.13 2.21 2.19 2.09 2.09 2.13 2.18 2.24 2.16 2.20 2.24 2.29 2.21 2.24 2.40 2.40 2.28 2.27 2.11 2.09 2.16 2.18 2.27 2.08 1.84 2.03 2.28 2.66 2.91 2.84 2.39 2.20 2.18 2.35 2.52
1.39 1.34 1.40 1.62 1.77 1.91 2.02 2.04 2.17 2.29 2.23 2.06 1.96 1.96 1.99 2.09 2.02 1.95 1.93 2.05 2.06 2.14 2.21 2.19 2.21 2.24 2.11 2.07 2.13 2.20 2.20 1.94 1.76 2.03 1.98 2.56 3.10 2.93 2.49 2.22 2.10 2.26 2.38
1.33 1.30 1.38 1.52 1.57 1.61 1.76 2.08 2.35 2.70 2.56 2.11 1.80 1.66 1.80 1.82 1.77 1.83 1.75 1.85 1.98 2.14 2.36 2.34 2.36 2.26 2.24 2.13 2.06 2.09 1.99 1.67 1.73 1.75 2.02 2.49 3.26 3.04 2.55 2.18 1.98 1.95 2.02
1.04 1.09 1.20 1.31 1.35 1.42 1.43 1.68 2.19 2.63 2.63 2.18 1.80 1.72 1.65 1.39 1.37 1.55 1.70 1.96 2.10 2.26 2.61 2.67 2.55 2.37 2.20 2.06 1.97 1.89 1.56 1.33 1.57 1.69 2.08 2.71 3.16 3.02 2.53 2.17 1.93 1.85 1.73
0.85 0.81 0.84 0.88 0.99 1.08 1.10 1.42 1.74 1.77 1.97 1.73 1.67 1.59 1.54 1.52 1.51 1.29 1.44 1.89 2.12 2.18 2.45 2.62 2.54 2.15 1.70 1.52 1.59 1.59 1.29 1.22 1.35 1.53 2.03 2.87 3.29 3.09 2.53 2.12 1.95 1.87 1.70
0.77 0.75 0.69 0.70 0.78 0.93 1.08 1.25 1.46 1.60 1.76 1.73 1.67 1.68 1.77 1.75 1.45 1.29 1.38 1.51 1.69 1.78 1.80 1.94 1.96 1.68 1.41 1.34 1.47 1.38 1.20 1.16 1.27 1.41 1.98 2.80 3.32 3.18 2.57 2.14 2.02 1.98 1.96
0.64 0.74 0.70 0.57 0.60 0.69 0.79 0.96 1.13 1.34 1.53 1.58 1.42 1.40 1.57 1.64 1.48 1.35 1.51 1.55 1.64 1.75 1.79 1.79 1.76 1.57 1.25 1.19 1.33 1.33 1.19 1.23 1.26 1.35 1.79 2.32 2.85 3.06 2.82 2.46 2.35 2.24 2.35
0.64 0.72 0.76 0.67 0.61 0.66 0.72 0.79 0.82 1.11 1.29 1.44 1.52 1.33 1.45 1.53 1.49 1.39 1.35 1.50 1.50 1.62 1.67 1.76 1.80 1.64 1.43 1.28 1.28 1.26 1.34 1.34 1.26 1.22 1.50 1.78 2.10 2.71 3.01 2.95 2.80 2.64 2.60
0.60 0.70 0.72 0.74 0.71 0.72 0.74 0.74 0.73 0.80 0.89 0.99 0.96 0.95 1.13 1.28 1.33 1.35 1.25 1.32 1.41 1.61 1.86 1.96 1.79 1.68 1.55 1.46 1.46 1.41 1.41 1.36 1.33 1.24 1.37 1.51 1.49 1.81 2.35 2.92 3.17 3.07 2.93
0.58 0.64 0.70 0.76 0.82 0.82 0.83 0.88 0.85 0.80 0.82 0.82 0.79 0.80 0.89 1.01 1.12 1.23 1.29 1.28 1.33 1.59 1.89 2.10 1.96 1.81 1.62 1.59 1.56 1.52 1.44 1.43 1.37 1.33 1.44 1.59 1.45 1.43 1.82 2.46 3.10 3.35 3.16
0.57 0.55 0.58 0.62 0.71 0.75 0.81 0.85 0.94 0.93 0.93 0.91 0.93 0.88 0.83 0.97 1.11 1.23 1.34 1.29 1.32 1.56 1.85 2.10 2.15 2.12 2.00 1.90 1.78 1.65 1.57 1.68 1.54 1.45 1.54 1.69 1.78 1.62 1.65 1.99 2.48 2.98 3.16
0.52 0.46 0.45 0.49 0.53 0.56 0.60 0.68 0.81 0.89 0.96 1.04 1.04 1.04 1.04 1.11 1.15 1.29 1.51 1.54 1.55 1.73 1.83 1.86 2.02 2.07 2.12 2.08 1.83 1.76 1.67 1.77 1.85 1.76 1.85 1.96 2.02 1.94 1.82 1.74 1.90 2.12 2.67
0.44 0.44 0.44 0.46 0.47 0.46 0.47 0.57 0.72 0.80 0.85 1.06 1.12 1.15 1.42 1.56 1.38 1.36 1.54 1.60 1.66 1.91 1.96 2.00 2.23 2.22 2.14 2.19 1.95 1.81 1.77 1.76 1.79 2.00 2.15 2.18 2.16 1.98 1.95 1.80 1.87 1.81 2.15
0.29 0.29 0.35 0.38 0.46 0.46 0.41 0.45 0.60 0.73 0.85 1.00 1.19 1.20 1.42 1.56 1.49 1.53 1.60 1.66 1.70 1.83 1.89 2.00 2.36 2.41 2.24 2.10 2.27 2.26 2.15 1.93 1.84 1.92 2.05 2.27 2.34 2.12 2.04 2.04 1.95 1.86 1.76
0.26 0.21 0.23 0.27 0.38 0.48 0.51 0.55 0.69 0.88 0.99 1.10 1.28 1.31 1.40 1.43 1.42 1.39 1.61 1.77 1.75 1.91 1.97 2.12 2.42 2.67 2.41 2.21 2.55 3.02 2.78 2.48 2.12 1.87 1.90 1.96 2.19 2.15 1.98 1.87 1.80 1.80 1.76
0.19 0.16 0.20 0.30 0.44 0.60 0.78 1.01 1.28 1.58 1.74 1.64 1.52 1.60 1.69 1.74 1.67 1.63 1.74 1.91 1.88 1.96 2.07 2.11 2.20 2.71 2.88 2.61 2.53 3.10 2.97 2.74 2.70 2.14 1.72 1.61 1.87 2.04 2.03 1.90 1.85 1.93 1.94
0.24 0.30 0.39 0.53 0.69 0.86 1.06 1.28 1.56 1.83 2.04 2.05 2.09 2.14 2.11 2.03 1.91 1.79 1.83 1.93 1.99 2.07 2.04 1.87 2.03 2.53 3.06 3.11 2.85 2.60 2.42 2.35 2.57 2.49 1.92 1.57 1.62 1.80 1.99 1.88 1.88 1.99 2.05
0.41 0.55 0.66 0.91 1.08 1.22 1.27 1.36 1.58 1.70 1.78 1.89 2.05 2.12 2.13 2.06 1.95 1.79 1.75 1.90 2.02 2.09 2.07 2.11 2.26 2.56 2.88 3.18 3.13 2.85 2.53 2.27 1.89 2.09 2.14 1.91 1.61 1.51 1.59 1.72 1.87 1.93 2.00
0.73 0.96 1.11 1.24 1.35 1.34 1.30 1.30 1.41 1.56 1.67 1.77 1.93 2.01 1.95 1.84 1.82 1.75 1.73 1.78 1.80 1.88 1.98 2.14 2.37 2.50 2.69 2.94 3.01 2.70 2.54 2.42 2.20 2.03 1.88 1.97 1.91 1.59 1.43 1.43 1.55 1.73 1.81